Погода в Мариуполе

Погода в Мариуполе : погода сейчас, прогноз погоды и архив. Всё, что Вы хотите узнать о погоде в Мариуполе!

Поиск расширенной информации на нашем сайте:

Полезная информация: Нужно шлифовать строганный брус les-mir.ru.

Другие новости

Новости СМИ2

Главная страница сайта

Новости сайта

02.10.2013

Напоминаем, что на нашем новом сайте вы можете получить высокодетализированные прогнозы погоды по пунктам России, СНГ и мира (включающие важные для авиации метеовеличины, такие как направление и скорость ветра, видимость, явления погоды, количество и форма облачности, нижняя и верхняя граница облачности), а также ознакомиться с разнообразными материалами по авиационной метеорологии и подборкой полезных ссылок на эту тему.

Сайт Метеоцентр.Азия посвящён разработке технологий оптимизации авиаметеорологического обслуживания, включая проектирование и перспективное создание нескольких автоматизированных авиаметеорологических систем:
- система выпуска высокодетальных прогностических карт явлений погоды для нижнего воздушного пространства по России и ближнему зарубежью;
- система верификации прогнозов TAF (выпускаемых синоптиками официальных АМСГ РФ и ближнего зарубежья) и AUTOTAF (выпускаемых сайтом Метеоцентр.Азия) - выявление ошибок, онлайн-сопоставление с фактической погодой METAR, автоматическое внесение коррективов в прогнозы при резком отклонении фактической погоды от прогноза, подсчёт оправдываемости прогнозов по элементам и в целом;
- система обработки, анализа и отображения авиаметеорологической информации для применения провайдерами метеорологической информации.

Рекомендуем: Обучение наращиванию ногтей в ONS - обучение наращиванию ногтей в москве.

Погода в Мариуполе - сегодня

Время (UTC), дата Ветер
(°,м/с) 
Видим.   Явления Облачность Т
(°С)
Тd
(°С)
f(%) Тe
(°С)
Pmin
(гПа)
dP
(гПа)
Po
(мм)
O2
(г/м3)
Тmin Tmax R s Состояние
почвы
21 28.07.14 080 (В) 20000 м    ясно 
+23.8 +6.5 33 +24  1016.5  0.1  756  279           
00 29.07.14 080 (В) 20000 м    ясно 
+21.3 +8.6 44 +21  1016  -0.5  756  281           
03 29.07.14 070 (В) 10 км    ясно 
+20 +8.7 48 +20  1016.2  0.1  756  282           
06 29.07.14 060 (СВ) 20000 м    ясно 
+24.7 +10.2 40 +26  1016.3  0.3  756  278  +19.9      797  мокрый или
старый снег
50-90% 
09 29.07.14 110 (В) 20000 м    1/0 верхняя 
[Ci fib]
+27.2 +10.5 35 +29  1015.8  -0.5  756  275         
12 29.07.14 120 (ЮВ) 20000 м    3/1 1500 м верхняя 
[Cu hum|Ci fib]
+27.9 +12 37 +32  1014.8  -0.9  755  274        797   
15 29.07.14 110 (В) 20000 м    ясно 
+28.2 +13.1 39 +28  1013.6  -1.2             
18 29.07.14 090 (В) 20000 м    ясно 
+27.5 +10.9 36 +30  1013.1  -0.5  754  274    -0.6      полностью
покрыта
пылью 
21 29.07.14 090 (В) 20000 м    ясно 
+25.5 +11.1 40 +28  1013.5  0.3  754  276           
00 30.07.14 070 (В) 20000 м    ясно 
+23.5 +8.2 38 +24    0.2             
03 30.07.14 030 (СВ) 10 км    3/0 средняя 
[Ac lent]
+22.7 +8.3 40 +23  1014.1  0.3  755  279           
06 30.07.14 070 (В) 20000 м    1/0 средняя 
[Ac cast]
+26.5 +10.9 38 +29  1014.2  0.2  755  275  +21.6        мокрая 
09 30.07.14 120 (ЮВ) 20000 м    1/1 1500 м 
[Cu hum]
+27.1 +13.8 44 +34  1014  -0.1  755  274        <0.5   
12 30.07.14 120 (ЮВ) 20000 м    1/1 1500 м 
[Cu hum]
+28.6 +11.6 35 +32  1012.9  -1.1  754  273           
15 30.07.14 110 (В) 20000 м    ясно 
+28.4 +12.7 38 +28  1012.3  -0.6             
18 30.07.14 130 (ЮВ) 20000 м    ясно <0100 м 
+26.2 +13.7 46 +33  1012.9  0.5  754  274    -0.6      полностью
покрыта
пылью 
21 30.07.14 070 (В) 20000 м    ясно 
+26.7 +7.6 30 +27  1012.4  -0.4  753  275           
00 31.07.14 070 (В) 20000 м    1/0 средняя 
[Ac cast]
+24.6 +9.6 39 +25  1013  0.5  754  277        <0.5   
03 31.07.14 040 (СВ) 20000 м    ясно 
+22.4 +8.6 41 +22  1013.6  0.5             
06 31.07.14 080 (В) 20000 м    1/0 верхняя 
[Ci fib]
+26.9 +9.8 34 +28  1013.5  -0.1  754  275  +22      <0.5  мокрый или
старый снег
50-90% 
09 31.07.14 090 (В) 20000 м    1/0 верхняя 
[Ci fib]
+27.2 +13.1 42 +33  1013.1  -0.4  754  274           
12 31.07.14 100 (В) 20000 м    3/0 средняя 
[Ac cast]
+28.7 +12.2 36 +33  1012.1  -1  753  272           
15 31.07.14 080 (В) 20000 м    3/0 средняя 
[Ac trans]
+28.5 +11.7 35 +32  1011.1  -1  752  272           
18 31.07.14 100 (В) 20000 м    ясно 
+27.4 +9.3 32 +28  1011.1  752  274    +29       
21 31.07.14 090 (В) 20000 м    ясно 
+26.7 +5 25 +27  1010.9  -0.2  752  275           
Время (UTC), дата Ветер
(°,м/с) 
Видим.   Явления Облачность Т
(°С)
Тd
(°С)
f(%) Тe
(°С)
Pmin
(гПа)
dP
(гПа)
Po
(мм)
O2
(г/м3)
Тmin Tmax R s Состояние
почвы

Для получения пояснительной информации подведите курсор к названию столбца.

ПОГОДА в Мариуполе - архив

Всё, что Вы хотите узнать о погоде в Мариуполе - удобно и подробно!

Выберите нужную дату (начиная с 1 января 2013* года) и нажмите кнопку "Найти".
Будут отображены архивные сводки погоды по пункту Мариуполь, начиная с указанной даты.


Отображать данные в формате CSV (для использования в таблицах Excel)


Внимание! Наш архив погоды предназначен исключительно для личного некоммерческого использования в познавательных целях. Если Вам необходимы официальные справки о состоянии погоды (для производственных, юридических, коммерческих и т.п. целей), обращайтесь в органы Росгидромета.

*Примечание: данная дата относится к архиву по метеостанциям СССР (Россия, СНГ, Балтия).
Архив по метеостанциям Зарубежной Европы и Азии (кроме Китая) хранится 10 дней, по другим регионам земного шара (Китай, Африка, Америка, Австралия, Океания) - 1 день.

Мариуполь - район местоположения метеостанции


Название, широта, долгота, высота метеостанции:
Мариуполь (город) 47°ш. 37.5°д. 70 м над ур. моря [Украина]

Дополнительная информация

В oтличие oт бoльшинства пoгoдных сайтoв мы публикуем пoдрoбную метеoинфoрмацию в детальнoм прoфессиoнальнoм фoрмате.

Характеристики температуры и влажнoсти вoздуха измеряются на высoте 2 м в тени вдали oт зданий и деревьев.
Скoрoсть ветра измеряется на высoте 10 м (на урoвне рoста челoвека скoрoсть ветра ниже в 1.5-2 раза). Если метеoстанция нахoдится в гoрoде или в лесу, тo скoрoсть ветра занижена на 2-4 м/с пo сравнению с oткрытым местoм. Скoрoсть ветра над акватoриями крупных рек и oзёр, а также на вершинах хoлмoв на 2-5 м/с выше, чем в oбычных услoвиях.
Атмoсфернoе давление в разных тoчках местнoсти мoжет значительнo oтличаться oт давления на метеoстанции, в зависимoсти oт услoвий рельефа (при пoдъёме на 10 м давление пoнижается примернo на 1 мм рт.ст.).